Regional Weather Roundup
Issued by NWS

Home | Current Version | Previous Version | Text Only | Print | Product List | Glossary On
Versions: 1 2 3 4 5 6 7 8 9 10 11 12 13 14 15 16 17 18 19 20 21 22 23 24 25 26 27 28 29 30 31 32 33 34 35 36 37 38 39 40 41 42 43 44 45 46 47 48 49 50
000
ASUS42 KFFC 010703
RWRGA
WEATHER ROUNDUP FOR GEORGIA
NATIONAL WEATHER SERVICE PEACHTREE CITY GA
200 AM EST SUN FEB 01 2015

NOTE: "FAIR" INDICATES FEW OR NO CLOUDS BELOW 12,000 FEET WITH NO
SIGNIFICANT WEATHER AND/OR OBSTRUCTIONS TO VISIBILITY.

* = USE WITH CAUTION. THE STATIONS MARKED WITH AN ASTERISK MAY NOT
REPORT WEATHER SUCH AS PRECIPITATION, FOG, OR THUNDER AND ARE NOT
QUALITY CONTROLLED BY NWS.

THE REMARK "TC" DENOTES TEMPERATURE READING IN DEGREES CELSIUS.

GAZ001>058-010800-
NORTH GEORGIA

CITY           SKY/WX    TMP DP  RH WIND       PRES   REMARKS
ATLANTA        MOCLDY    45  21  38 SE3       30.24F
ATHENS         CLOUDY    41  26  55 E3        30.25F
CHAMBLEE       CLOUDY    40  27  59 N3        30.24F
PEACHTREE CITY MOCLDY    36  29  75 CALM      30.24F
ROME           CLOUDY    38  29  70 W3        30.23F
WEST ATLANTA   MOCLDY    41  30  65 CALM      30.24F
GAINESVILLE    CLOUDY    41  21  44 CALM      30.25F
CARTERSVILLE   CLOUDY    38  28  67 CALM      30.25S


CITY           SKY/WX    TMP DP  RH WIND       PRES   REMARKS
DALTON*        CLOUDY    37  32  81 CALM      30.23F
MARIETTA       CLOUDY    42  26  52 CALM      30.23F
$$

GAZ059>098-102>109-010800-
CENTRAL GEORGIA

CITY           SKY/WX    TMP DP  RH WIND       PRES   REMARKS
AUGUSTA-BUSH   CLOUDY    38  26  62 CALM      30.31S
AUGUSTA-DANIEL CLOUDY    45  20  36 S6        30.30S
COLUMBUS       PTCLDY    43  25  49 E3        30.23F
MACON          MOCLDY    39  30  70 SE3       30.28S
ROBINS AFB     MOCLDY    39  31  75 E3        30.28F


CITY           SKY/WX    TMP DP  RH WIND       PRES   REMARKS
LAGRANGE*      PTCLDY    40  33  77 CALM      30.24S
SYLVANIA*      MOCLDY    38  35  89 CALM      30.30F
MILLEDGEVILLE* MOCLDY    43  32  65 CALM      30.27F
$$

GAZ099>101-110>166-010800-
SOUTH GEORGIA

CITY           SKY/WX    TMP DP  RH WIND       PRES   REMARKS
SAVANNAH       PTCLDY    38  33  82 CALM      30.30F
VALDOSTA       CLEAR     43  37  79 CALM      30.26F
ALMA           MOCLDY    42  35  76 E3        30.28F
ST SIMONS      CLEAR     48  43  82 E6        30.28F
FT STEWART     CLOUDY    35  32  89 CALM      30.28F
ALBANY         MOCLDY    43  36  76 E5        30.27F
HUNTER AFB     MOCLDY    39  35  87 CALM      30.28F
MOODY AFB      PTCLDY    42  36  78 E5        30.26F
BRUNSWICK      CLEAR     36  34  93 CALM      30.29F


CITY           SKY/WX    TMP DP  RH WIND       PRES   REMARKS
BAINBRIDGE*    CLEAR     45  41  87 E3        30.24S
MOULTRIE*      MOCLDY    45  37  76 E3        30.26S
VIDALIA*       MOCLDY    39  34  81 CALM      30.29F
WAYCROSS*      MOCLDY    44  40  86 CALM      30.28S
DOUGLAS*       CLOUDY    45  36  70 SE3       30.28F
$$


USA.gov is the U.S. government's official web portal to all federal, state and local government web resources and services.